Year,Month,Day,Hour,Minute,Value (Times are PST for windgust in km/hr)
2020,11,03,00,00,1.60
2020,11,03,00,01,1.60
2020,11,03,00,02,3.20
2020,11,03,00,03,3.20
2020,11,03,00,08,3.20
2020,11,03,00,09,4.80
2020,11,03,00,10,1.60
2020,11,03,00,11,1.60
2020,11,03,00,18,3.20
2020,11,03,00,19,3.20
2020,11,03,00,20,3.20
2020,11,03,00,21,3.20
2020,11,03,00,22,1.60
2020,11,03,00,23,1.60
2020,11,03,00,24,1.60
2020,11,03,00,25,3.20
2020,11,03,00,26,1.60
2020,11,03,00,27,3.20
2020,11,03,00,28,3.20
2020,11,03,00,29,1.60
2020,11,03,00,30,1.60
2020,11,03,00,42,8.10
2020,11,03,00,43,8.10
2020,11,03,00,44,6.40
2020,11,03,00,45,6.40
2020,11,03,00,46,6.40
2020,11,03,00,47,6.40
2020,11,03,00,48,6.40
2020,11,03,00,49,3.20
2020,11,03,00,50,3.20
2020,11,03,00,51,1.60
2020,11,03,00,57,4.80
2020,11,03,00,58,3.20
2020,11,03,00,59,4.80
2020,11,03,01,00,3.20
2020,11,03,01,02,3.20
2020,11,03,01,03,1.60
2020,11,03,01,06,1.60
2020,11,03,01,07,1.60
2020,11,03,01,08,1.60
2020,11,03,01,09,1.60
2020,11,03,01,21,1.60
2020,11,03,01,22,1.60
2020,11,03,01,24,1.60
2020,11,03,01,25,1.60
2020,11,03,01,26,1.60
2020,11,03,01,27,1.60
2020,11,03,01,30,1.60
2020,11,03,02,12,4.80
2020,11,03,02,13,4.80
2020,11,03,02,14,4.80
2020,11,03,02,15,6.40
2020,11,03,02,16,4.80
2020,11,03,02,17,1.60
2020,11,03,02,19,6.40
2020,11,03,02,20,4.80
2020,11,03,02,21,3.20
2020,11,03,02,22,1.60
2020,11,03,03,06,1.60
2020,11,03,03,07,3.20
2020,11,03,03,08,4.80
2020,11,03,03,09,4.80
2020,11,03,03,10,4.80
2020,11,03,03,11,4.80
2020,11,03,03,12,1.60
2020,11,03,03,26,1.60
2020,11,03,03,27,1.60
2020,11,03,03,28,1.60
2020,11,03,03,29,1.60
2020,11,03,03,30,1.60
2020,11,03,03,31,1.60
2020,11,03,03,39,1.60
2020,11,03,03,40,1.60
2020,11,03,03,42,3.20
2020,11,03,03,43,6.40
2020,11,03,03,44,6.40
2020,11,03,03,45,6.40
2020,11,03,03,46,3.20
2020,11,03,03,48,3.20
2020,11,03,03,49,1.60
2020,11,03,03,51,3.20
2020,11,03,03,52,4.80
2020,11,03,03,53,6.40
2020,11,03,03,54,8.10
2020,11,03,03,55,4.80
2020,11,03,03,56,6.40
2020,11,03,03,57,4.80
2020,11,03,03,58,3.20
2020,11,03,03,59,3.20
2020,11,03,04,01,1.60
2020,11,03,04,02,1.60
2020,11,03,04,03,1.60
2020,11,03,05,09,4.80
2020,11,03,05,10,6.40
2020,11,03,05,11,8.10
2020,11,03,05,12,8.10
2020,11,03,05,13,4.80
2020,11,03,05,14,4.80
2020,11,03,05,15,4.80
2020,11,03,05,16,3.20
2020,11,03,05,17,4.80
2020,11,03,05,18,1.60
2020,11,03,05,20,1.60
2020,11,03,05,21,1.60
2020,11,03,05,22,3.20
2020,11,03,05,23,3.20
2020,11,03,05,25,3.20
2020,11,03,05,26,1.60
2020,11,03,05,33,4.80
2020,11,03,05,34,4.80
2020,11,03,05,35,4.80
2020,11,03,05,36,3.20
2020,11,03,05,37,1.60
2020,11,03,05,41,1.60
2020,11,03,05,42,1.60
2020,11,03,05,43,1.60
2020,11,03,05,44,1.60
2020,11,03,05,45,3.20
2020,11,03,05,46,1.60
2020,11,03,05,57,4.80
2020,11,03,05,58,6.40
2020,11,03,05,59,4.80
2020,11,03,06,00,6.40
2020,11,03,06,01,6.40
2020,11,03,06,02,8.10
2020,11,03,06,03,6.40
2020,11,03,06,04,3.20
2020,11,03,06,05,1.60
2020,11,03,06,12,1.60
2020,11,03,06,13,3.20
2020,11,03,06,14,1.60
2020,11,03,06,15,3.20
2020,11,03,06,16,3.20
2020,11,03,06,17,4.80
2020,11,03,06,18,3.20
2020,11,03,06,19,1.60
2020,11,03,06,20,1.60
2020,11,03,06,21,1.60
2020,11,03,06,22,3.20
2020,11,03,06,23,4.80
2020,11,03,06,24,4.80
2020,11,03,06,25,3.20
2020,11,03,06,26,4.80
2020,11,03,06,27,3.20
2020,11,03,06,46,3.20
2020,11,03,06,47,6.40
2020,11,03,06,48,8.10
2020,11,03,06,49,6.40
2020,11,03,06,50,6.40
2020,11,03,06,51,4.80
2020,11,03,06,52,4.80
2020,11,03,06,53,8.10
2020,11,03,06,54,4.80
2020,11,03,06,55,8.10
2020,11,03,06,56,4.80
2020,11,03,06,57,4.80
2020,11,03,06,58,1.60
2020,11,03,06,59,3.20
2020,11,03,07,00,4.80
2020,11,03,07,01,3.20
2020,11,03,07,02,1.60
2020,11,03,07,05,1.60
2020,11,03,07,06,3.20
2020,11,03,07,07,8.10
2020,11,03,07,08,8.10
2020,11,03,07,09,8.10
2020,11,03,07,10,8.10
2020,11,03,07,11,6.40
2020,11,03,07,12,4.80
2020,11,03,07,13,4.80
2020,11,03,07,14,3.20
2020,11,03,07,15,3.20
2020,11,03,07,16,1.60
2020,11,03,07,17,1.60
2020,11,03,07,18,3.20
2020,11,03,07,19,4.80
2020,11,03,07,20,4.80
2020,11,03,07,21,6.40
2020,11,03,07,22,4.80
2020,11,03,07,23,8.10
2020,11,03,07,24,6.40
2020,11,03,07,25,3.20
2020,11,03,07,26,3.20
2020,11,03,07,27,4.80
2020,11,03,07,28,4.80
2020,11,03,07,29,3.20
2020,11,03,07,31,4.80
2020,11,03,07,32,3.20
2020,11,03,07,33,3.20
2020,11,03,07,34,1.60
2020,11,03,07,35,1.60
2020,11,03,07,36,4.80
2020,11,03,07,37,4.80
2020,11,03,07,38,4.80
2020,11,03,07,39,4.80
2020,11,03,07,40,4.80
2020,11,03,07,41,1.60
2020,11,03,07,44,4.80
2020,11,03,07,45,3.20
2020,11,03,07,46,4.80
2020,11,03,07,47,3.20
2020,11,03,07,48,4.80
2020,11,03,07,49,3.20
2020,11,03,08,11,4.80
2020,11,03,08,12,4.80
2020,11,03,08,13,3.20
2020,11,03,08,14,6.40
2020,11,03,08,15,3.20
2020,11,03,08,21,1.60
2020,11,03,08,23,1.60
2020,11,03,08,25,1.60
2020,11,03,08,26,3.20
2020,11,03,08,27,3.20
2020,11,03,08,28,1.60
2020,11,03,08,29,3.20
2020,11,03,08,30,1.60
2020,11,03,08,31,1.60
2020,11,03,08,32,1.60
2020,11,03,08,39,1.60
2020,11,03,08,40,3.20
2020,11,03,08,41,3.20
2020,11,03,08,42,3.20
2020,11,03,08,43,1.60
2020,11,03,08,44,1.60
2020,11,03,08,45,3.20
2020,11,03,08,46,1.60
2020,11,03,08,48,1.60
2020,11,03,08,49,1.60
2020,11,03,08,50,1.60
2020,11,03,08,52,1.60
2020,11,03,08,53,1.60
2020,11,03,08,54,1.60
2020,11,03,08,56,1.60
2020,11,03,10,18,4.80
2020,11,03,10,19,3.20
2020,11,03,10,20,3.20
2020,11,03,10,21,3.20
2020,11,03,10,22,1.60
2020,11,03,10,23,4.80
2020,11,03,10,24,4.80
2020,11,03,10,25,1.60
2020,11,03,11,24,1.60
2020,11,03,11,26,1.60
2020,11,03,11,27,1.60
2020,11,03,11,28,1.60
2020,11,03,11,29,1.60
2020,11,03,11,31,1.60
2020,11,03,11,35,1.60
2020,11,03,11,36,1.60
2020,11,03,12,10,4.80
2020,11,03,12,11,4.80
2020,11,03,12,12,4.80
2020,11,03,12,13,4.80
2020,11,03,12,14,3.20
2020,11,03,12,15,1.60
2020,11,03,12,16,3.20
2020,11,03,12,17,4.80
2020,11,03,12,18,3.20
2020,11,03,12,19,3.20
2020,11,03,12,20,3.20
2020,11,03,12,21,1.60
2020,11,03,12,23,3.20
2020,11,03,12,24,1.60
2020,11,03,12,49,1.60
2020,11,03,12,50,1.60
2020,11,03,12,51,1.60
2020,11,03,12,52,1.60
2020,11,03,12,53,4.80
2020,11,03,12,54,1.60
2020,11,03,12,57,3.20
2020,11,03,14,22,4.80
2020,11,03,14,23,4.80
2020,11,03,14,24,1.60
2020,11,03,14,25,3.20
2020,11,03,14,26,1.60
2020,11,03,14,27,4.80
2020,11,03,14,28,1.60
2020,11,03,14,29,1.60
2020,11,03,14,43,4.80
2020,11,03,14,44,6.40
2020,11,03,14,45,6.40
2020,11,03,14,46,3.20
2020,11,03,14,47,4.80
2020,11,03,14,48,1.60
2020,11,03,14,53,3.20
2020,11,03,14,54,4.80
2020,11,03,14,55,4.80
2020,11,03,14,56,9.60
2020,11,03,14,57,4.80
2020,11,03,14,58,4.80
2020,11,03,14,59,4.80
2020,11,03,15,00,6.40
2020,11,03,15,01,3.20
2020,11,03,15,02,4.80
2020,11,03,15,03,6.40
2020,11,03,15,04,8.10
2020,11,03,15,05,6.40
2020,11,03,15,06,8.10
2020,11,03,15,07,8.10
2020,11,03,15,08,9.60
2020,11,03,15,09,12.90
2020,11,03,15,10,8.10
2020,11,03,15,11,4.80
2020,11,03,15,12,4.80
2020,11,03,15,13,6.40
2020,11,03,15,14,6.40
2020,11,03,15,15,3.20
2020,11,03,15,16,3.20
2020,11,03,15,24,1.60
2020,11,03,15,39,3.20
2020,11,03,15,40,3.20
2020,11,03,15,41,4.80
2020,11,03,15,42,4.80
2020,11,03,15,43,6.40
2020,11,03,15,44,4.80
2020,11,03,15,45,6.40
2020,11,03,15,46,6.40
2020,11,03,15,47,6.40
2020,11,03,15,48,4.80
2020,11,03,15,49,4.80
2020,11,03,15,50,4.80
2020,11,03,15,51,6.40
2020,11,03,15,52,3.20
2020,11,03,15,53,3.20
2020,11,03,15,54,3.20
2020,11,03,15,55,4.80
2020,11,03,15,56,3.20
2020,11,03,15,57,1.60
2020,11,03,15,58,1.60
2020,11,03,15,59,1.60
2020,11,03,16,00,3.20
2020,11,03,16,01,3.20
2020,11,03,16,02,1.60
2020,11,03,16,03,1.60
2020,11,03,16,05,3.20
2020,11,03,16,06,3.20
2020,11,03,16,11,3.20
2020,11,03,16,12,6.40
2020,11,03,16,13,6.40
2020,11,03,16,14,6.40
2020,11,03,16,15,4.80
2020,11,03,16,16,3.20
2020,11,03,16,17,3.20
2020,11,03,16,18,1.60
2020,11,03,16,19,3.20
2020,11,03,16,28,3.20
2020,11,03,16,29,4.80
2020,11,03,16,30,3.20
2020,11,03,16,31,4.80
2020,11,03,16,32,6.40
2020,11,03,16,33,6.40
2020,11,03,16,34,14.50
2020,11,03,16,35,12.90
2020,11,03,16,36,3.20
2020,11,03,16,42,6.40
2020,11,03,16,44,3.20
2020,11,03,16,45,3.20
2020,11,03,16,46,1.60
2020,11,03,16,53,3.20
2020,11,03,16,54,1.60
2020,11,03,16,55,3.20
2020,11,03,16,56,4.80
2020,11,03,16,57,3.20
2020,11,03,16,58,3.20
2020,11,03,17,00,1.60
2020,11,03,17,01,1.60
2020,11,03,17,02,1.60
2020,11,03,17,14,1.60
2020,11,03,17,15,1.60
2020,11,03,17,16,1.60
2020,11,03,17,17,3.20
2020,11,03,17,18,3.20
2020,11,03,17,55,8.10
2020,11,03,17,56,3.20
2020,11,03,17,57,8.10
2020,11,03,17,58,8.10
2020,11,03,17,59,3.20
2020,11,03,18,00,6.40
2020,11,03,18,01,9.60
2020,11,03,18,02,6.40
2020,11,03,18,03,3.20
2020,11,03,18,04,3.20
2020,11,03,18,05,3.20
2020,11,03,18,06,3.20
2020,11,03,18,07,4.80
2020,11,03,18,08,1.60
2020,11,03,18,09,4.80
2020,11,03,18,10,1.60
2020,11,03,18,13,1.60
2020,11,03,18,14,4.80
2020,11,03,18,15,3.20
2020,11,03,18,30,3.20
2020,11,03,18,31,4.80
2020,11,03,18,32,1.60
2020,11,03,18,36,1.60
2020,11,03,18,54,1.60
2020,11,03,19,02,3.20
2020,11,03,19,03,3.20
2020,11,03,19,06,1.60
2020,11,03,19,07,3.20
2020,11,03,19,09,1.60
2020,11,03,19,13,3.20
2020,11,03,19,14,3.20
2020,11,03,19,15,1.60
2020,11,03,19,16,3.20
2020,11,03,19,17,1.60
2020,11,03,19,18,1.60
2020,11,03,19,19,3.20
2020,11,03,19,20,1.60
2020,11,03,19,23,1.60
2020,11,03,19,24,4.80
2020,11,03,19,25,1.60
2020,11,03,19,26,3.20
2020,11,03,19,27,8.10
2020,11,03,19,28,8.10
2020,11,03,19,29,8.10
2020,11,03,19,30,6.40
2020,11,03,19,31,6.40
2020,11,03,19,32,8.10
2020,11,03,19,33,9.60
2020,11,03,19,34,12.90
2020,11,03,19,35,8.10
2020,11,03,19,36,8.10
2020,11,03,19,37,3.20
2020,11,03,19,38,4.80
2020,11,03,19,39,1.60
2020,11,03,19,43,3.20
2020,11,03,19,44,4.80
2020,11,03,19,45,4.80
2020,11,03,19,46,8.10
2020,11,03,19,47,4.80
2020,11,03,19,48,4.80
2020,11,03,19,49,3.20
2020,11,03,19,50,4.80
2020,11,03,19,51,4.80
2020,11,03,19,52,4.80
2020,11,03,19,53,8.10
2020,11,03,19,54,4.80
2020,11,03,19,55,3.20
2020,11,03,19,57,4.80
2020,11,03,19,58,1.60
2020,11,03,20,19,4.80
2020,11,03,20,20,3.20
2020,11,03,20,21,3.20
2020,11,03,20,22,3.20
2020,11,03,20,23,1.60
2020,11,03,20,26,1.60
2020,11,03,20,28,3.20
2020,11,03,20,29,3.20
2020,11,03,20,30,1.60
2020,11,03,20,31,1.60
2020,11,03,20,32,4.80
2020,11,03,20,33,4.80
2020,11,03,20,34,1.60
2020,11,03,20,36,3.20
2020,11,03,20,37,3.20
2020,11,03,20,38,4.80
2020,11,03,20,39,1.60
2020,11,03,20,40,1.60
2020,11,03,21,02,4.80
2020,11,03,21,03,1.60
2020,11,03,21,05,1.60
2020,11,03,21,07,1.60
2020,11,03,21,08,4.80
2020,11,03,21,09,1.60
2020,11,03,21,10,1.60
2020,11,03,21,16,3.20
2020,11,03,21,17,3.20
2020,11,03,21,18,1.60
2020,11,03,21,19,4.80
2020,11,03,21,20,1.60
2020,11,03,21,21,1.60
2020,11,03,21,22,1.60
2020,11,03,21,23,1.60
2020,11,03,21,29,1.60
2020,11,03,21,30,3.20
2020,11,03,21,31,4.80
2020,11,03,21,32,4.80
2020,11,03,21,33,4.80
2020,11,03,21,34,3.20
2020,11,03,21,35,1.60
2020,11,03,21,37,1.60
2020,11,03,21,38,4.80
2020,11,03,21,39,4.80
2020,11,03,21,42,3.20
2020,11,03,21,43,4.80
2020,11,03,21,44,4.80
2020,11,03,21,45,3.20
2020,11,03,21,46,4.80
2020,11,03,21,47,4.80
2020,11,03,21,48,4.80
2020,11,03,21,49,4.80
2020,11,03,21,50,3.20
2020,11,03,21,51,4.80
2020,11,03,21,52,3.20
2020,11,03,21,53,3.20
2020,11,03,21,54,3.20
2020,11,03,21,55,3.20
2020,11,03,21,58,11.30
2020,11,03,21,59,9.60
2020,11,03,22,00,12.90
2020,11,03,22,01,12.90
2020,11,03,22,02,19.30
2020,11,03,22,03,11.30
2020,11,03,22,04,9.60
2020,11,03,22,05,4.80
2020,11,03,22,06,4.80
2020,11,03,22,07,3.20
2020,11,03,22,08,1.60
2020,11,03,22,09,4.80
2020,11,03,22,10,9.60
2020,11,03,22,11,4.80
2020,11,03,22,12,4.80
2020,11,03,22,13,4.80
2020,11,03,22,14,3.20
2020,11,03,22,15,3.20
2020,11,03,22,16,4.80
2020,11,03,22,17,8.10
2020,11,03,22,18,6.40
2020,11,03,22,19,4.80
2020,11,03,22,20,3.20
2020,11,03,22,21,1.60
2020,11,03,22,22,3.20
2020,11,03,22,23,8.10
2020,11,03,22,24,9.60
2020,11,03,22,25,9.60
2020,11,03,22,26,8.10
2020,11,03,22,27,4.80
2020,11,03,22,28,4.80
2020,11,03,22,29,4.80
2020,11,03,22,30,6.40
2020,11,03,22,31,8.10
2020,11,03,22,32,8.10
2020,11,03,22,33,6.40
2020,11,03,22,34,3.20
2020,11,03,22,35,6.40
2020,11,03,22,36,4.80
2020,11,03,22,37,4.80
2020,11,03,22,38,3.20
2020,11,03,22,40,1.60
2020,11,03,22,43,3.20
2020,11,03,22,44,4.80
2020,11,03,22,45,3.20
2020,11,03,22,46,1.60
2020,11,03,22,47,1.60
